{"data":{"norad_id":58710,"epoch":"2026-09-20T14:33:29.094336Z","epoch_age_seconds":140464,"freshness":"FRESH","line1":"1 58710U 24002F   26263.60658674 -.00008591  00000+0 -66007-4 0  9997","line2":"2 58710  53.1583  32.9777 0000706 107.2703 252.8392 15.69754794157052","mean_motion":15.69754794,"eccentricity":7.06e-5,"inclination_deg":53.1583,"raan_deg":32.9777,"arg_perigee_deg":107.2703,"mean_anomaly_deg":252.8392,"bstar":-6.6007e-5,"rev_number":15705,"period_min":91.734072449025,"perigee_km":359.12288605493,"apogee_km":360.07425431744,"semimajor_km":6737.7355701862,"source":"CELESTRAK","updated_at":"2026-09-21T09:00:33.947710Z"}}